| time (UTC) | temp F | wind direction | speed MPH | gust MPH | rain 1hr in | rain 24hr in | rain mn in | humidity % | barometer mb |
| 20260902043929 | 83 | 341 | 0.0 | 0.0 | 0.00 | 0.00 | 0.00 | 34 | 1019.6 |
| 20260902043429 | 83 | 341 | 0.0 | 0.0 | 0.00 | 0.00 | 0.00 | 35 | 1019.7 |
| 20260902043207 | 83 | 341 | 0.0 | 0.0 | 0.00 | 0.00 | 0.00 | 34 | 1019.6 |
| 20260902042932 | 83 | 341 | 0.0 | 0.0 | 0.00 | 0.00 | 0.00 | 34 | 1019.6 |
| 20260902042151 | 83 | 341 | 0.0 | 0.0 | 0.00 | 0.00 | 0.00 | 35 | 1019.6 |
| 20260902041650 | 83 | 341 | 0.0 | 0.0 | 0.00 | 0.00 | 0.00 | 35 | 1019.6 |
| 20260902041153 | 84 | 341 | 0.0 | 0.0 | 0.00 | 0.00 | 0.00 | 34 | 1019.5 |
| 20260902040429 | 84 | 341 | 0.0 | 0.0 | 0.00 | 0.00 | 0.00 | 33 | 1019.3 |
| 20260902035929 | 84 | 341 | 0.0 | 0.0 | 0.00 | 0.00 | 0.00 | 32 | 1019.3 |
| 20260902035651 | 85 | 341 | 0.0 | 0.0 | 0.00 | 0.00 | 0.00 | 32 | 1019.3 |
| 20260902034929 | 85 | 341 | 0.0 | 0.0 | 0.00 | 0.00 | 0.00 | 32 | 1019.3 |
| 20260902034430 | 85 | 341 | 0.0 | 0.0 | 0.00 | 0.00 | 0.00 | 32 | 1019.3 |
| 20260902033930 | 86 | 341 | 0.0 | 0.0 | 0.00 | 0.00 | 0.00 | 31 | 1019.3 |
| 20260902033429 | 86 | 341 | 0.0 | 0.0 | 0.00 | 0.00 | 0.00 | 31 | 1019.2 |
| 20260902032929 | 86 | 341 | 0.0 | 0.0 | 0.00 | 0.00 | 0.00 | 31 | 1019.2 |
| 20260902032429 | 86 | 341 | 0.0 | 0.0 | 0.00 | 0.00 | 0.00 | 31 | 1019.2 |
| 20260902032149 | 86 | 341 | 0.0 | 1.0 | 0.00 | 0.00 | 0.00 | 30 | 1019.1 |
| 20260902031429 | 87 | 341 | 0.0 | 2.0 | 0.00 | 0.00 | 0.00 | 30 | 1019.0 |
| 20260902031147 | 87 | 336 | 0.0 | 2.0 | 0.00 | 0.00 | 0.00 | 30 | 1018.9 |
| 20260902030653 | 87 | 355 | 0.0 | 1.0 | 0.00 | 0.00 | 0.00 | 30 | 1018.8 |
| 20260902025929 | 87 | 347 | 0.0 | 1.0 | 0.00 | 0.00 | 0.00 | 30 | 1018.8 |
| 20260902025429 | 87 | 329 | 0.0 | 0.0 | 0.00 | 0.00 | 0.00 | 29 | 1018.7 |
| 20260902024929 | 87 | 329 | 0.0 | 3.0 | 0.00 | 0.00 | 0.00 | 29 | 1018.6 |
| 20260902024429 | 87 | 323 | 1.0 | 4.0 | 0.00 | 0.00 | 0.00 | 29 | 1018.4 |
| 20260902023929 | 87 | 317 | 1.0 | 4.0 | 0.00 | 0.00 | 0.00 | 29 | 1018.2 |
| 20260902023429 | 88 | 329 | 1.0 | 3.0 | 0.00 | 0.00 | 0.00 | 29 | 1018.1 |
| 20260902022929 | 88 | 338 | 2.0 | 5.0 | 0.00 | 0.00 | 0.00 | 29 | 1018.0 |
| 20260902022430 | 88 | 334 | 2.0 | 5.0 | 0.00 | 0.00 | 0.00 | 29 | 1017.9 |
| 20260902021929 | 88 | 325 | 2.0 | 5.0 | 0.00 | 0.00 | 0.00 | 29 | 1018.0 |
| 20260902021657 | 88 | 11 | 2.0 | 5.0 | 0.00 | 0.00 | 0.00 | 29 | 1017.9 |
| 20260902020929 | 88 | 317 | 2.0 | 4.0 | 0.00 | 0.00 | 0.00 | 29 | 1017.8 |
| 20260902020429 | 88 | 309 | 2.0 | 5.0 | 0.00 | 0.00 | 0.00 | 29 | 1017.8 |
| 20260902015929 | 88 | 301 | 3.0 | 5.0 | 0.00 | 0.00 | 0.00 | 29 | 1017.8 |
| 20260902015430 | 89 | 313 | 3.0 | 8.0 | 0.00 | 0.00 | 0.00 | 29 | 1017.8 |
| 20260902015149 | 89 | 270 | 3.0 | 9.0 | 0.00 | 0.00 | 0.00 | 29 | 1017.8 |
| 20260902014429 | 89 | 308 | 4.0 | 10.0 | 0.00 | 0.00 | 0.00 | 29 | 1017.7 |
| 20260902014148 | 89 | 312 | 5.0 | 10.0 | 0.00 | 0.00 | 0.00 | 29 | 1017.6 |
| 20260902013429 | 89 | 306 | 4.0 | 9.0 | 0.00 | 0.00 | 0.00 | 29 | 1017.6 |
| 20260902012928 | 89 | 316 | 4.0 | 9.0 | 0.00 | 0.00 | 0.00 | 29 | 1017.6 |
| 20260902012429 | 89 | 0 | 5.0 | 10.0 | 0.00 | 0.00 | 0.00 | 29 | 1017.6 |
| 20260902011925 | 89 | 344 | 5.0 | 10.0 | 0.00 | 0.00 | 0.00 | 29 | 1017.6 |
| 20260902011423 | 90 | 317 | 5.0 | 11.0 | 0.00 | 0.00 | 0.00 | 29 | 1017.4 |
| 20260902011402 | 90 | 311 | 5.0 | 11.0 | 0.00 | 0.00 | 0.00 | 29 | 1017.4 |
| 20260902010910 | 90 | 324 | 5.0 | 12.0 | 0.00 | 0.00 | 0.00 | 28 | 1017.6 |
| 20260902005923 | 91 | 5 | 6.0 | 12.0 | 0.00 | 0.00 | 0.00 | 28 | 1017.6 |
| 20260902005424 | 91 | 311 | 5.0 | 10.0 | 0.00 | 0.00 | 0.00 | 28 | 1017.4 |
| 20260902004923 | 91 | 319 | 4.0 | 10.0 | 0.00 | 0.00 | 0.00 | 28 | 1017.3 |
| 20260902004651 | 91 | 284 | 5.0 | 11.0 | 0.00 | 0.00 | 0.00 | 28 | 1017.4 |
| 20260902004145 | 92 | 291 | 5.0 | 11.0 | 0.00 | 0.00 | 0.00 | 28 | 1017.4 |
| 20260902003421 | 92 | 281 | 5.0 | 11.0 | 0.00 | 0.00 | 0.00 | 28 | 1017.4 |
| 20260902002922 | 92 | 292 | 7.0 | 12.0 | 0.00 | 0.00 | 0.00 | 28 | 1017.3 |
| 20260902002421 | 92 | 271 | 7.0 | 12.0 | 0.00 | 0.00 | 0.00 | 27 | 1017.4 |
| 20260902002145 | 92 | 288 | 6.0 | 12.0 | 0.00 | 0.00 | 0.00 | 27 | 1017.4 |
| 20260902001419 | 93 | 272 | 5.0 | 11.0 | 0.00 | 0.00 | 0.00 | 27 | 1017.4 |
| 20260902001140 | 93 | 325 | 5.0 | 11.0 | 0.00 | 0.00 | 0.00 | 27 | 1017.4 |
| 20260902000417 | 93 | 325 | 5.0 | 11.0 | 0.00 | 0.00 | 0.00 | 27 | 1017.4 |
| 20260901235917 | 93 | 281 | 4.0 | 11.0 | 0.00 | 0.00 | 0.00 | 27 | 1017.6 |
| 20260901235417 | 93 | 305 | 3.0 | 11.0 | 0.00 | 0.00 | 0.00 | 27 | 1017.6 |
| 20260901234915 | 93 | 108 | 4.0 | 9.0 | 0.00 | 0.00 | 0.00 | 25 | 1017.6 |
| 20260901234640 | 94 | 259 | 4.0 | 10.0 | 0.00 | 0.00 | 0.00 | 26 | 1017.6 |
| 20260901233915 | 93 | 242 | 5.0 | 12.0 | 0.00 | 0.00 | 0.00 | 26 | 1017.7 |
| 20260901233414 | 93 | 262 | 6.0 | 12.0 | 0.00 | 0.00 | 0.00 | 26 | 1017.6 |
| 20260901233135 | 94 | 289 | 5.0 | 10.0 | 0.00 | 0.00 | 0.00 | 25 | 1017.4 |
| 20260901232415 | 94 | 258 | 6.0 | 11.0 | 0.00 | 0.00 | 0.00 | 25 | 1017.6 |
| 20260901231915 | 94 | 269 | 7.0 | 13.0 | 0.00 | 0.00 | 0.00 | 25 | 1017.4 |
| 20260901231411 | 93 | 275 | 7.0 | 13.0 | 0.00 | 0.00 | 0.00 | 25 | 1017.4 |
| 20260901231357 | 93 | 264 | 6.0 | 13.0 | 0.00 | 0.00 | 0.00 | 25 | 1017.4 |
| 20260901230411 | 94 | 317 | 5.0 | 10.0 | 0.00 | 0.00 | 0.00 | 25 | 1017.3 |
| 20260901225912 | 93 | 269 | 7.0 | 15.0 | 0.00 | 0.00 | 0.00 | 25 | 1017.4 |
| 20260901225411 | 94 | 315 | 7.0 | 15.0 | 0.00 | 0.00 | 0.00 | 25 | 1017.6 |
| 20260901224911 | 93 | 283 | 6.0 | 14.0 | 0.00 | 0.00 | 0.00 | 25 | 1017.6 |
| 20260901224630 | 93 | 239 | 5.0 | 14.0 | 0.00 | 0.00 | 0.00 | 25 | 1017.6 |
| 20260901223911 | 93 | 355 | 4.0 | 12.0 | 0.00 | 0.00 | 0.00 | 25 | 1017.7 |
| 20260901223631 | 94 | 344 | 4.0 | 13.0 | 0.00 | 0.00 | 0.00 | 25 | 1017.8 |
| 20260901222911 | 94 | 317 | 5.0 | 13.0 | 0.00 | 0.00 | 0.00 | 25 | 1017.9 |
| 20260901222411 | 93 | 333 | 6.0 | 12.0 | 0.00 | 0.00 | 0.00 | 25 | 1017.8 |
| 20260901221911 | 93 | 324 | 8.0 | 14.0 | 0.00 | 0.00 | 0.00 | 25 | 1017.9 |
| 20260901221411 | 93 | 14 | 8.0 | 14.0 | 0.00 | 0.00 | 0.00 | 25 | 1017.9 |
| 20260901220911 | 94 | 316 | 5.0 | 13.0 | 0.00 | 0.00 | 0.00 | 25 | 1017.9 |
| 20260901220409 | 94 | 319 | 5.0 | 13.0 | 0.00 | 0.00 | 0.00 | 25 | 1017.9 |
| 20260901215910 | 93 | 339 | 5.0 | 12.0 | 0.00 | 0.00 | 0.00 | 26 | 1017.9 |
| 20260901215408 | 93 | 315 | 6.0 | 14.0 | 0.00 | 0.00 | 0.00 | 26 | 1018.0 |
| 20260901214907 | 93 | 281 | 5.0 | 14.0 | 0.00 | 0.00 | 0.00 | 26 | 1018.0 |
| 20260901214407 | 93 | 321 | 3.0 | 12.0 | 0.00 | 0.00 | 0.00 | 26 | 1018.0 |
| 20260901213907 | 93 | 313 | 2.0 | 12.0 | 0.00 | 0.00 | 0.00 | 26 | 1018.2 |
| 20260901213610 | 93 | 334 | 2.0 | 9.0 | 0.00 | 0.00 | 0.00 | 25 | 1018.2 |
| 20260901213601 | 93 | 275 | 1.0 | 7.0 | 0.00 | 0.00 | 0.00 | 26 | 1018.2 |
| 20260901212624 | 93 | 186 | 4.0 | 12.0 | 0.00 | 0.00 | 0.00 | 25 | 1018.2 |
| 20260901211907 | 93 | 181 | 5.0 | 12.0 | 0.00 | 0.00 | 0.00 | 26 | 1018.4 |
| 20260901211404 | 93 | 94 | 4.0 | 10.0 | 0.00 | 0.00 | 0.00 | 25 | 1018.4 |
| 20260901211128 | 94 | 126 | 3.0 | 10.0 | 0.00 | 0.00 | 0.00 | 25 | 1018.6 |
| 20260901210403 | 93 | 294 | 4.0 | 10.0 | 0.00 | 0.00 | 0.00 | 25 | 1018.6 |
| 20260901205903 | 93 | 137 | 3.0 | 10.0 | 0.00 | 0.00 | 0.00 | 26 | 1018.9 |
| 20260901205403 | 93 | 181 | 1.0 | 9.0 | 0.00 | 0.00 | 0.00 | 26 | 1019.0 |
| 20260901204902 | 92 | 114 | 4.0 | 11.0 | 0.00 | 0.00 | 0.00 | 26 | 1018.9 |
| 20260901204403 | 93 | 149 | 4.0 | 11.0 | 0.00 | 0.00 | 0.00 | 26 | 1019.0 |
| 20260901203903 | 93 | 132 | 2.0 | 11.0 | 0.00 | 0.00 | 0.00 | 26 | 1019.0 |
| 20260901203403 | 94 | 144 | 1.0 | 6.0 | 0.00 | 0.00 | 0.00 | 26 | 1019.2 |
| 20260901202903 | 94 | 272 | 1.0 | 5.0 | 0.00 | 0.00 | 0.00 | 26 | 1019.2 |
| 20260901202402 | 93 | 61 | 1.0 | 5.0 | 0.00 | 0.00 | 0.00 | 26 | 1019.3 |
| 20260901201901 | 93 | 124 | 2.0 | 7.0 | 0.00 | 0.00 | 0.00 | 26 | 1019.5 |
| 20260901201402 | 92 | 121 | 2.0 | 7.0 | 0.00 | 0.00 | 0.00 | 27 | 1019.6 |
| 20260901201125 | 92 | 99 | 2.0 | 6.0 | 0.00 | 0.00 | 0.00 | 27 | 1019.7 |
| 20260901200353 | 91 | 217 | 4.0 | 10.0 | 0.00 | 0.00 | 0.00 | 27 | 1019.7 |
| 20260901195848 | 91 | 211 | 5.0 | 10.0 | 0.00 | 0.00 | 0.00 | 28 | 1019.7 |
| 20260901195342 | 91 | 209 | 6.0 | 11.0 | 0.00 | 0.00 | 0.00 | 28 | 1019.8 |
| 20260901194836 | 90 | 202 | 4.0 | 11.0 | 0.00 | 0.00 | 0.00 | 28 | 1019.9 |
| 20260901194329 | 91 | 207 | 2.0 | 10.0 | 0.00 | 0.00 | 0.00 | 28 | 1019.9 |
| 20260901193831 | 91 | 295 | 2.0 | 10.0 | 0.00 | 0.00 | 0.00 | 28 | 1020.0 |
| 20260901193330 | 90 | 119 | 4.0 | 10.0 | 0.00 | 0.00 | 0.00 | 28 | 1020.1 |
| 20260901192830 | 90 | 136 | 6.0 | 11.0 | 0.00 | 0.00 | 0.00 | 29 | 1020.2 |
| 20260901192546 | 90 | 211 | 4.0 | 11.0 | 0.00 | 0.00 | 0.00 | 28 | 1020.2 |
| 20260901191831 | 91 | 184 | 3.0 | 10.0 | 0.00 | 0.00 | 0.00 | 28 | 1020.4 |
| 20260901191330 | 91 | 174 | 3.0 | 8.0 | 0.00 | 0.00 | 0.00 | 29 | 1020.4 |
| 20260901190831 | 89 | 119 | 2.0 | 9.0 | 0.00 | 0.00 | 0.00 | 29 | 1020.5 |
| 20260901190331 | 89 | 121 | 2.0 | 9.0 | 0.00 | 0.00 | 0.00 | 29 | 1020.6 |
| 20260901185831 | 88 | 97 | 2.0 | 9.0 | 0.00 | 0.00 | 0.00 | 30 | 1020.6 |
| 20260901185330 | 88 | 15 | 2.0 | 7.0 | 0.00 | 0.00 | 0.00 | 30 | 1020.7 |
| 20260901184830 | 89 | 78 | 3.0 | 10.0 | 0.00 | 0.00 | 0.00 | 29 | 1020.8 |
| 20260901184331 | 89 | 236 | 5.0 | 11.0 | 0.00 | 0.00 | 0.00 | 29 | 1020.8 |
| 20260901183829 | 89 | 152 | 5.0 | 12.0 | 0.00 | 0.00 | 0.00 | 29 | 1020.7 |
| 20260901183329 | 89 | 156 | 4.0 | 12.0 | 0.00 | 0.00 | 0.00 | 30 | 1020.6 |
| 20260901182829 | 88 | 62 | 3.0 | 9.0 | 0.00 | 0.00 | 0.00 | 30 | 1020.8 |
| 20260901182547 | 88 | 153 | 3.0 | 10.0 | 0.00 | 0.00 | 0.00 | 31 | 1020.9 |
| 20260901181829 | 88 | 237 | 4.0 | 10.0 | 0.00 | 0.00 | 0.00 | 30 | 1021.0 |
| 20260901181548 | 88 | 283 | 5.0 | 10.0 | 0.00 | 0.00 | 0.00 | 31 | 1020.9 |
| 20260901180818 | 88 | 232 | 5.0 | 10.0 | 0.00 | 0.00 | 0.00 | 31 | 1020.9 |
| 20260901180535 | 87 | 161 | 4.0 | 10.0 | 0.00 | 0.00 | 0.00 | 31 | 1021.0 |
| 20260901175806 | 88 | 150 | 1.0 | 9.0 | 0.00 | 0.00 | 0.00 | 31 | 1021.0 |
| 20260901175306 | 88 | 207 | 2.0 | 8.0 | 0.00 | 0.00 | 0.00 | 32 | 1021.1 |
| 20260901174806 | 88 | 260 | 3.0 | 8.0 | 0.00 | 0.00 | 0.00 | 31 | 1021.4 |
| 20260901174306 | 88 | 153 | 1.0 | 7.0 | 0.00 | 0.00 | 0.00 | 31 | 1021.4 |
| 20260901173806 | 87 | 126 | 0.0 | 3.0 | 0.00 | 0.00 | 0.00 | 33 | 1021.4 |
| 20260901173307 | 86 | 279 | 0.0 | 4.0 | 0.00 | 0.00 | 0.00 | 33 | 1021.4 |
| 20260901172804 | 86 | 238 | 1.0 | 6.0 | 0.00 | 0.00 | 0.00 | 33 | 1021.5 |
| 20260901172305 | 85 | 22 | 1.0 | 6.0 | 0.00 | 0.00 | 0.00 | 34 | 1021.6 |
| 20260901171803 | 85 | 97 | 0.0 | 3.0 | 0.00 | 0.00 | 0.00 | 34 | 1021.5 |
| 20260901171745 | 85 | 67 | 1.0 | 4.0 | 0.00 | 0.00 | 0.00 | 34 | 1021.7 |
| 20260901170802 | 85 | 101 | 2.0 | 5.0 | 0.00 | 0.00 | 0.00 | 34 | 1021.7 |
| 20260901170302 | 85 | 185 | 2.0 | 5.0 | 0.00 | 0.00 | 0.00 | 34 | 1021.8 |
| 20260901165801 | 85 | 218 | 1.0 | 5.0 | 0.00 | 0.00 | 0.00 | 34 | 1021.7 |
| 20260901165306 | 85 | 130 | 1.0 | 3.0 | 0.00 | 0.00 | 0.00 | 34 | 1021.7 |
| 20260901164801 | 84 | 127 | 0.0 | 3.0 | 0.00 | 0.00 | 0.00 | 35 | 1021.6 |
| 20260901164301 | 83 | 59 | 0.0 | 3.0 | 0.00 | 0.00 | 0.00 | 36 | 1021.6 |
| 20260901164026 | 83 | 61 | 0.0 | 2.0 | 0.00 | 0.00 | 0.00 | 37 | 1021.6 |
| 20260901163301 | 82 | 321 | 0.0 | 3.0 | 0.00 | 0.00 | 0.00 | 38 | 1021.6 |
| 20260901162800 | 82 | 11 | 0.0 | 3.0 | 0.00 | 0.00 | 0.00 | 37 | 1021.5 |
| 20260901162254 | 82 | 75 | 0.0 | 3.0 | 0.00 | 0.00 | 0.00 | 38 | 1021.5 |
| 20260901161748 | 82 | 101 | 0.0 | 3.0 | 0.00 | 0.00 | 0.00 | 38 | 1021.5 |
| 20260901161241 | 81 | 336 | 0.0 | 2.0 | 0.00 | 0.00 | 0.00 | 39 | 1021.5 |
| 20260901160738 | 81 | 74 | 0.0 | 2.0 | 0.00 | 0.00 | 0.00 | 39 | 1021.5 |
| 20260901160237 | 82 | 25 | 0.0 | 1.0 | 0.00 | 0.00 | 0.00 | 40 | 1021.5 |
| 20260901155957 | 81 | 132 | 0.0 | 0.0 | 0.00 | 0.00 | 0.00 | 40 | 1021.4 |
| 20260901155458 | 81 | 269 | 0.0 | 0.0 | 0.00 | 0.00 | 0.00 | 41 | 1021.4 |
| 20260901154739 | 80 | 228 | 0.0 | 0.0 | 0.00 | 0.00 | 0.00 | 41 | 1021.4 |
| 20260901154238 | 80 | 190 | 1.0 | 4.0 | 0.00 | 0.00 | 0.00 | 41 | 1021.3 |
| 20260901153736 | 80 | 194 | 1.0 | 4.0 | 0.00 | 0.00 | 0.00 | 41 | 1021.4 |
| 20260901153235 | 80 | 177 | 1.0 | 4.0 | 0.00 | 0.00 | 0.00 | 42 | 1021.3 |
| 20260901152734 | 80 | 237 | 1.0 | 4.0 | 0.00 | 0.00 | 0.00 | 42 | 1021.5 |
| 20260901152500 | 80 | 169 | 1.0 | 6.0 | 0.00 | 0.00 | 0.00 | 42 | 1021.4 |
| 20260901151734 | 80 | 167 | 1.0 | 6.0 | 0.00 | 0.00 | 0.00 | 42 | 1021.3 |
| 20260901151233 | 80 | 153 | 1.0 | 4.0 | 0.00 | 0.00 | 0.00 | 42 | 1021.3 |
| 20260901150734 | 80 | 242 | 1.0 | 4.0 | 0.00 | 0.00 | 0.00 | 42 | 1021.3 |
| 20260901150234 | 79 | 159 | 1.0 | 4.0 | 0.00 | 0.00 | 0.00 | 43 | 1021.3 |
| 20260901150001 | 79 | 122 | 1.0 | 4.0 | 0.00 | 0.00 | 0.00 | 45 | 1021.3 |
| 20260901145231 | 79 | 175 | 2.0 | 7.0 | 0.00 | 0.00 | 0.00 | 45 | 1021.3 |
| 20260901144731 | 79 | 152 | 3.0 | 7.0 | 0.00 | 0.00 | 0.00 | 45 | 1021.3 |
| 20260901144456 | 78 | 127 | 3.0 | 7.0 | 0.00 | 0.00 | 0.00 | 46 | 1021.1 |
| 20260901143730 | 78 | 114 | 4.0 | 8.0 | 0.00 | 0.00 | 0.00 | 46 | 1021.1 |
| 20260901143230 | 78 | 128 | 4.0 | 9.0 | 0.00 | 0.00 | 0.00 | 47 | 1021.1 |
| 20260901142730 | 77 | 160 | 4.0 | 9.0 | 0.00 | 0.00 | 0.00 | 46 | 1021.1 |
| 20260901142229 | 77 | 115 | 4.0 | 9.0 | 0.00 | 0.00 | 0.00 | 48 | 1021.1 |
| 20260901141730 | 77 | 122 | 2.0 | 6.0 | 0.00 | 0.00 | 0.00 | 48 | 1021.1 |
| 20260901141229 | 77 | 121 | 2.0 | 6.0 | 0.00 | 0.00 | 0.00 | 47 | 1021.0 |
| 20260901140730 | 77 | 98 | 2.0 | 6.0 | 0.00 | 0.00 | 0.00 | 47 | 1020.9 |
| 20260901140454 | 77 | 121 | 1.0 | 6.0 | 0.00 | 0.00 | 0.00 | 46 | 1020.9 |
| 20260901135730 | 76 | 113 | 1.0 | 3.0 | 0.00 | 0.00 | 0.00 | 45 | 1020.8 |
| 20260901135230 | 76 | 133 | 0.0 | 3.0 | 0.00 | 0.00 | 0.00 | 45 | 1020.7 |
| 20260901134729 | 76 | 173 | 0.0 | 0.0 | 0.00 | 0.00 | 0.00 | 45 | 1020.7 |
| 20260901134229 | 76 | 194 | 0.0 | 0.0 | 0.00 | 0.00 | 0.00 | 46 | 1020.7 |
| 20260901133730 | 76 | 171 | 0.0 | 0.0 | 0.00 | 0.00 | 0.00 | 46 | 1020.6 |
| 20260901133229 | 76 | 165 | 0.0 | 0.0 | 0.00 | 0.00 | 0.00 | 46 | 1020.5 |
| 20260901132730 | 76 | 167 | 0.0 | 0.0 | 0.00 | 0.00 | 0.00 | 47 | 1020.6 |
| 20260901132229 | 76 | 171 | 0.0 | 2.0 | 0.00 | 0.00 | 0.00 | 47 | 1020.6 |
| 20260901131730 | 75 | 97 | 1.0 | 3.0 | 0.00 | 0.00 | 0.00 | 47 | 1020.7 |
| 20260901131229 | 75 | 107 | 2.0 | 4.0 | 0.00 | 0.00 | 0.00 | 47 | 1020.6 |
| 20260901130730 | 75 | 108 | 2.0 | 4.0 | 0.00 | 0.00 | 0.00 | 49 | 1020.6 |
| 20260901130229 | 75 | 128 | 2.0 | 4.0 | 0.00 | 0.00 | 0.00 | 50 | 1020.5 |
| 20260901125730 | 75 | 140 | 2.0 | 5.0 | 0.00 | 0.00 | 0.00 | 50 | 1020.4 |
| 20260901125230 | 75 | 132 | 3.0 | 6.0 | 0.00 | 0.00 | 0.00 | 49 | 1020.4 |
| 20260901124729 | 75 | 144 | 3.0 | 7.0 | 0.00 | 0.00 | 0.00 | 49 | 1020.4 |
| 20260901124230 | 75 | 119 | 3.0 | 7.0 | 0.00 | 0.00 | 0.00 | 48 | 1020.2 |
| 20260901123728 | 75 | 130 | 2.0 | 5.0 | 0.00 | 0.00 | 0.00 | 47 | 1020.2 |
| 20260901123229 | 75 | 146 | 2.0 | 6.0 | 0.00 | 0.00 | 0.00 | 47 | 1020.1 |
| 20260901122952 | 76 | 128 | 3.0 | 7.0 | 0.00 | 0.00 | 0.00 | 46 | 1020.0 |
| 20260901122229 | 76 | 101 | 3.0 | 8.0 | 0.00 | 0.00 | 0.00 | 46 | 1019.9 |
| 20260901121729 | 76 | 108 | 2.0 | 8.0 | 0.00 | 0.00 | 0.00 | 46 | 1019.8 |
| 20260901121228 | 76 | 118 | 0.0 | 5.0 | 0.00 | 0.00 | 0.00 | 45 | 1019.8 |
| 20260901120729 | 76 | 348 | 0.0 | 1.0 | 0.00 | 0.00 | 0.00 | 44 | 1019.6 |
| 20260901120452 | 77 | 200 | 0.0 | 1.0 | 0.00 | 0.00 | 0.00 | 44 | 1019.5 |
| 20260901115730 | 77 | 244 | 1.0 | 4.0 | 0.00 | 0.00 | 0.00 | 43 | 1019.5 |
| 20260901115229 | 77 | 244 | 2.0 | 6.0 | 0.00 | 0.00 | 0.00 | 43 | 1019.5 |
| 20260901114729 | 77 | 306 | 2.0 | 6.0 | 0.00 | 0.00 | 0.00 | 43 | 1019.5 |
| 20260901114230 | 77 | 340 | 2.0 | 5.0 | 0.00 | 0.00 | 0.00 | 43 | 1019.5 |
| 20260901113729 | 77 | 344 | 3.0 | 8.0 | 0.00 | 0.00 | 0.00 | 43 | 1019.3 |
| 20260901113230 | 77 | 296 | 4.0 | 9.0 | 0.00 | 0.00 | 0.00 | 43 | 1019.3 |
| 20260901112729 | 77 | 296 | 3.0 | 9.0 | 0.00 | 0.00 | 0.00 | 42 | 1019.3 |
| 20260901112456 | 77 | 330 | 2.0 | 5.0 | 0.00 | 0.00 | 0.00 | 42 | 1019.3 |
| 20260901111728 | 77 | 49 | 2.0 | 5.0 | 0.00 | 0.00 | 0.00 | 42 | 1019.3 |
| 20260901111231 | 78 | 38 | 1.0 | 3.0 | 0.00 | 0.00 | 0.00 | 42 | 1019.3 |
| 20260901110729 | 78 | 17 | 1.0 | 4.0 | 0.00 | 0.00 | 0.00 | 42 | 1019.3 |
| 20260901110229 | 78 | 29 | 2.0 | 5.0 | 0.00 | 0.00 | 0.00 | 42 | 1019.3 |
| 20260901105725 | 78 | 13 | 2.0 | 5.0 | 0.00 | 0.00 | 0.00 | 41 | 1019.3 |
| 20260901105219 | 78 | 355 | 2.0 | 7.0 | 0.00 | 0.00 | 0.00 | 41 | 1019.3 |
| 20260901104719 | 78 | 34 | 2.0 | 7.0 | 0.00 | 0.00 | 0.00 | 41 | 1019.3 |
| 20260901104219 | 78 | 22 | 1.0 | 5.0 | 0.00 | 0.00 | 0.00 | 41 | 1019.3 |
| 20260901103719 | 77 | 338 | 1.0 | 5.0 | 0.00 | 0.00 | 0.00 | 42 | 1019.3 |
| 20260901103220 | 76 | 298 | 0.0 | 4.0 | 0.00 | 0.00 | 0.00 | 44 | 1019.3 |
| 20260901102720 | 76 | 67 | 1.0 | 3.0 | 0.00 | 0.00 | 0.00 | 47 | 1019.3 |
| 20260901102440 | 76 | 67 | 1.0 | 3.0 | 0.00 | 0.00 | 0.00 | 48 | 1019.3 |
| 20260901101717 | 76 | 91 | 1.0 | 4.0 | 0.00 | 0.00 | 0.00 | 49 | 1019.3 |
| 20260901101217 | 76 | 90 | 2.0 | 4.0 | 0.00 | 0.00 | 0.00 | 50 | 1019.5 |
| 20260901100716 | 76 | 96 | 1.0 | 3.0 | 0.00 | 0.00 | 0.00 | 49 | 1019.5 |
| 20260901100215 | 76 | 90 | 1.0 | 3.0 | 0.00 | 0.00 | 0.00 | 48 | 1019.5 |
| 20260901095711 | 77 | 0 | 0.0 | 2.0 | 0.00 | 0.00 | 0.00 | 47 | 1019.6 |
| 20260901095652 | 77 | 0 | 0.0 | 2.0 | 0.00 | 0.00 | 0.00 | 45 | 1019.6 |
| 20260901094712 | 77 | 339 | 1.0 | 6.0 | 0.00 | 0.00 | 0.00 | 44 | 1019.6 |
| 20260901094210 | 77 | 339 | 2.0 | 6.0 | 0.00 | 0.00 | 0.00 | 43 | 1019.6 |
| 20260901093937 | 77 | 335 | 3.0 | 10.0 | 0.00 | 0.00 | 0.00 | 43 | 1019.7 |
| 20260901093430 | 78 | 333 | 5.0 | 10.0 | 0.00 | 0.00 | 0.00 | 43 | 1019.7 |
| 20260901092710 | 78 | 309 | 4.0 | 11.0 | 0.00 | 0.00 | 0.00 | 43 | 1019.8 |
| 20260901092208 | 77 | 347 | 3.0 | 11.0 | 0.00 | 0.00 | 0.00 | 43 | 1019.7 |
| 20260901091706 | 77 | 355 | 2.0 | 10.0 | 0.00 | 0.00 | 0.00 | 45 | 1019.7 |
| 20260901091205 | 76 | 17 | 1.0 | 5.0 | 0.00 | 0.00 | 0.00 | 48 | 1019.7 |
| 20260901090707 | 76 | 108 | 0.0 | 0.0 | 0.00 | 0.00 | 0.00 | 52 | 1019.8 |
| 20260901090204 | 76 | 110 | 0.0 | 1.0 | 0.00 | 0.00 | 0.00 | 52 | 1019.8 |
| 20260901085705 | 76 | 131 | 0.0 | 2.0 | 0.00 | 0.00 | 0.00 | 51 | 1019.8 |
| 20260901085204 | 76 | 131 | 1.0 | 2.0 | 0.00 | 0.00 | 0.00 | 51 | 1019.8 |
| 20260901084706 | 76 | 132 | 1.0 | 2.0 | 0.00 | 0.00 | 0.00 | 51 | 1019.8 |
| 20260901084203 | 77 | 121 | 0.0 | 2.0 | 0.00 | 0.00 | 0.00 | 51 | 1019.8 |
| 20260901083929 | 77 | 117 | 0.0 | 2.0 | 0.00 | 0.00 | 0.00 | 50 | 1019.7 |
| 20260901083203 | 77 | 121 | 1.0 | 3.0 | 0.00 | 0.00 | 0.00 | 50 | 1019.6 |
| 20260901082931 | 77 | 111 | 1.0 | 3.0 | 0.00 | 0.00 | 0.00 | 50 | 1019.7 |
| 20260901082644 | 77 | 115 | 1.0 | 2.0 | 0.00 | 0.00 | 0.00 | 49 | 1019.8 |
| 20260901081929 | 77 | 132 | 0.0 | 2.0 | 0.00 | 0.00 | 0.00 | 49 | 1019.8 |
| 20260901081202 | 77 | 103 | 0.0 | 1.0 | 0.00 | 0.00 | 0.00 | 49 | 1019.8 |
| 20260901080703 | 77 | 98 | 0.0 | 1.0 | 0.00 | 0.00 | 0.00 | 49 | 1019.8 |
| 20260901080202 | 78 | 92 | 0.0 | 2.0 | 0.00 | 0.00 | 0.00 | 49 | 1019.9 |
| 20260901075701 | 78 | 165 | 0.0 | 2.0 | 0.00 | 0.00 | 0.00 | 48 | 1019.9 |
| 20260901075202 | 78 | 169 | 0.0 | 2.0 | 0.00 | 0.00 | 0.00 | 48 | 1020.0 |
| 20260901074701 | 78 | 169 | 1.0 | 6.0 | 0.00 | 0.00 | 0.00 | 48 | 1020.2 |
| 20260901074426 | 78 | 169 | 3.0 | 8.0 | 0.00 | 0.00 | 0.00 | 48 | 1020.2 |
| 20260901073701 | 78 | 128 | 5.0 | 11.0 | 0.00 | 0.00 | 0.00 | 48 | 1020.2 |
| 20260901073201 | 78 | 165 | 7.0 | 12.0 | 0.00 | 0.00 | 0.00 | 47 | 1020.4 |
| 20260901072701 | 78 | 146 | 7.0 | 12.0 | 0.00 | 0.00 | 0.00 | 47 | 1020.4 |
| 20260901072202 | 79 | 153 | 7.0 | 14.0 | 0.00 | 0.00 | 0.00 | 47 | 1020.5 |
| 20260901071701 | 79 | 186 | 7.0 | 16.0 | 0.00 | 0.00 | 0.00 | 46 | 1020.5 |
| 20260901071421 | 80 | 154 | 6.0 | 16.0 | 0.00 | 0.00 | 0.00 | 44 | 1020.6 |
| 20260901070701 | 80 | 188 | 4.0 | 11.0 | 0.00 | 0.00 | 0.00 | 42 | 1020.6 |
| 20260901070201 | 80 | 191 | 3.0 | 6.0 | 0.00 | 0.00 | 0.00 | 42 | 1020.6 |
| 20260901065701 | 80 | 187 | 3.0 | 8.0 | 0.00 | 0.00 | 0.00 | 42 | 1020.5 |
| 20260901065202 | 80 | 292 | 3.0 | 8.0 | 0.00 | 0.00 | 0.00 | 43 | 1020.5 |
| 20260901064702 | 80 | 311 | 4.0 | 13.0 | 0.00 | 0.00 | 0.00 | 43 | 1020.2 |
| 20260901064201 | 80 | 300 | 6.0 | 15.0 | 0.00 | 0.00 | 0.00 | 43 | 1020.2 |
| 20260901063701 | 80 | 315 | 8.0 | 15.0 | 0.00 | 0.00 | 0.00 | 43 | 1020.1 |
| 20260901063200 | 80 | 327 | 8.0 | 15.0 | 0.00 | 0.00 | 0.00 | 43 | 1020.0 |
| 20260901062701 | 80 | 298 | 7.0 | 14.0 | 0.00 | 0.00 | 0.00 | 43 | 1019.9 |
| 20260901062202 | 80 | 309 | 8.0 | 16.0 | 0.00 | 0.00 | 0.00 | 43 | 1019.9 |
| 20260901061701 | 80 | 348 | 9.0 | 20.0 | 0.00 | 0.00 | 0.00 | 43 | 1020.0 |
| 20260901061202 | 80 | 309 | 10.0 | 20.0 | 0.00 | 0.00 | 0.00 | 43 | 1019.8 |
| 20260901060702 | 80 | 342 | 11.0 | 20.0 | 0.00 | 0.00 | 0.00 | 43 | 1019.8 |
| 20260901060202 | 80 | 343 | 9.0 | 17.0 | 0.00 | 0.00 | 0.00 | 43 | 1019.8 |
| 20260901055700 | 80 | 300 | 7.0 | 17.0 | 0.00 | 0.00 | 0.00 | 42 | 1019.9 |
| 20260901055420 | 81 | 321 | 5.0 | 15.0 | 0.00 | 0.00 | 0.00 | 41 | 1020.1 |
| 20260901054701 | 81 | 351 | 3.0 | 12.0 | 0.00 | 0.00 | 0.00 | 40 | 1020.0 |
| 20260901054201 | 81 | 46 | 3.0 | 6.0 | 0.00 | 0.00 | 0.00 | 40 | 1020.1 |
| 20260901053703 | 81 | 340 | 2.0 | 10.0 | 0.00 | 0.00 | 0.00 | 40 | 1020.1 |
| 20260901053201 | 81 | 294 | 3.0 | 10.0 | 0.00 | 0.00 | 0.00 | 39 | 1020.0 |
| 20260901052702 | 81 | 257 | 3.0 | 12.0 | 0.00 | 0.00 | 0.00 | 39 | 1019.9 |
| 20260901052202 | 82 | 299 | 3.0 | 12.0 | 0.00 | 0.00 | 0.00 | 38 | 1019.8 |
| 20260901051702 | 82 | 301 | 1.0 | 8.0 | 0.00 | 0.00 | 0.00 | 39 | 1019.8 |
| 20260901051429 | 82 | 313 | 3.0 | 11.0 | 0.00 | 0.00 | 0.00 | 38 | 1019.8 |
| 20260901050701 | 82 | 315 | 5.0 | 11.0 | 0.00 | 0.00 | 0.00 | 37 | 1019.6 |
| 20260901050201 | 82 | 329 | 6.0 | 14.0 | 0.00 | 0.00 | 0.00 | 36 | 1019.5 |
| 20260901045701 | 82 | 334 | 5.0 | 14.0 | 0.00 | 0.00 | 0.00 | 36 | 1019.2 |
| 20260901045201 | 82 | 48 | 4.0 | 10.0 | 0.00 | 0.00 | 0.00 | 37 | 1019.1 |
| 20260901044701 | 81 | 175 | 5.0 | 19.0 | 0.00 | 0.00 | 0.00 | 37 | 1019.0 |
| 20260901044201 | 81 | 349 | 6.0 | 19.0 | 0.00 | 0.00 | 0.00 | 37 | 1018.9 |